Location: Alsip
(41.6689°N, 87.7387°W)
Time: 13:39:26
(UTC+00:00)

Cosmos 540 Rocket - Pass Details

Date: 14 July 2020
Orbit: 740 x 754 km, 74.1° (Epoch: 13 August)

Event Time Altitude Azimuth Distance (km) Brightness Sun altitude
Rises 09:31:14 0° 340° (NNW) 3,197 7.0 -9.7°
Reaches altitude 10° 09:33:36 10° 340° (NNW) 2,272 6.2 -9.3°
Maximum altitude 09:38:45 89° 248° (WSW) 755 3.5 -8.6°
Drops below altitude 10° 09:43:54 10° 162° (SSE) 2,264 5.7 -7.8°
Sets 09:46:15 0° 163° (SSE) 3,186 6.5 -7.5°
